This is the latest recevied weather packets stored in our database for station/object WA4OPQ-3. If no packets are shown the sender has not sent any weather packets the latest 10 day(s).
| Time | Temp. | Humidity | Pressure | Rain* | Wind** | Luminosity | Snow |
|---|---|---|---|---|---|---|---|
| 1777819872 | 15° C | 51% | 1021.1 hPa | 0 mm | - | 705 W/m² | - |
| 1777819266 | 15° C | 56% | 1021.1 hPa | 0 mm | - | 645 W/m² | - |
| 1777818666 | 15.56° C | 53% | 1021.2 hPa | 0 mm | - | 572 W/m² | - |
| 1777818056 | 15° C | 56% | 1020.9 hPa | 0 mm | - | 561 W/m² | - |
| 1777817451 | 13.89° C | 61% | 1021 hPa | 0 mm | - | 564 W/m² | - |
| 1777816846 | 13.89° C | 64% | 1020.6 hPa | 0 mm | - | 516 W/m² | - |
| 1777816240 | 12.78° C | 76% | 1021 hPa | 0 mm | - | 434 W/m² | - |
| 1777815635 | 11.11° C | 79% | 1021 hPa | 0 mm | - | 373 W/m² | - |
| 1777815030 | 10.56° C | 86% | 1020.9 hPa | 0 mm | - | 324 W/m² | - |
| 1777814425 | 8.89° C | 90% | 1020.8 hPa | 0 mm | - | 331 W/m² | - |
| 1777813820 | 7.78° C | 93% | 1021.2 hPa | 0 mm | - | 143 W/m² | - |
| 1777813215 | 6.67° C | 97% | 1020.9 hPa | 0 mm | - | 157 W/m² | - |
| 1777812609 | 5.56° C | 99% | 1021 hPa | 0 mm | - | 150 W/m² | - |
| 1777812004 | 5° C | 99% | 1020.8 hPa | 0 mm | - | 131 W/m² | - |
| 1777811401 | 3.89° C | 99% | 1020.9 hPa | 0 mm | - | 100 W/m² | - |
| 1777810796 | 2.78° C | 99% | 1020.9 hPa | 0 mm | - | 69 W/m² | - |
| 1777810191 | 2.22° C | 99% | 1020.8 hPa | 0 mm | - | 31 W/m² | - |
| 1777809585 | 1.67° C | 99% | 1020.7 hPa | 0 mm | - | 28 W/m² | - |
| 1777808980 | 1.67° C | 99% | 1020.6 hPa | 0 mm | - | 24 W/m² | - |
| 1777808374 | 1.11° C | 99% | 1020.4 hPa | 0 mm | - | 20 W/m² | - |
| 1777807769 | 1.11° C | 99% | 1020.5 hPa | 0 mm | - | 15 W/m² | - |
| 1777807164 | 0.56° C | 99% | 1020.3 hPa | 0 mm | - | 10 W/m² | - |
| 1777806561 | 0.56° C | 99% | 1020.1 hPa | 0 mm | - | 7 W/m² | - |
| 1777805956 | 1.11° C | 99% | 1020.1 hPa | 0 mm | - | 3 W/m² | - |
| 1777805350 | 0.56° C | 99% | 1019.9 hPa | 0 mm | - | 0 W/m² | - |
* Rain latest hour (hover to see other rain measurements)
** Current wind speed in m/s (hover to see current wind gust speed)